Location: Maiden
(35.5760°N, 81.2120°W)
Time: 07:58:31
(UTC-04:00)

A-11 Canister half - Visible Passes

Search period start: 10 August 2020 00:00
Search period end: 20 August 2020 00:00
Orbit: 1513 x 1687 km, 47.2° (Epoch: 10 August)

Date Brightness Start Highest point End Pass type
(mag) Time Alt. Az. Time Alt. Az. Time Alt. Az.
10 Aug 9.1 01:22:11 10° NW 01:31:12 75° WNW 01:31:12 75° WNW visible
10 Aug 10.8 03:28:26 10° WNW 03:29:19 13° WNW 03:29:19 13° WNW visible
10 Aug 10.1 20:47:06 10° W 20:56:20 46° NNW 21:05:54 10° ENE visible
10 Aug 9.8 22:53:50 10° WNW 23:03:21 47° NNE 23:10:31 19° ENE visible
11 Aug 9.0 00:59:14 10° NW 01:08:38 80° NW 01:08:38 80° NW visible
11 Aug 10.7 03:05:19 10° WNW 03:06:47 14° WNW 03:06:47 14° WNW visible
11 Aug 9.9 22:30:52 10° WNW 22:40:17 46° NNE 22:48:05 17° ENE visible
12 Aug 9.0 00:36:17 10° NW 00:46:13 85° N 00:46:13 85° N visible
12 Aug 10.7 02:42:12 10° WNW 02:44:21 17° WNW 02:44:21 17° WNW visible
12 Aug 9.9 22:07:52 10° WNW 22:17:14 45° N 22:25:43 14° ENE visible
13 Aug 9.0 00:13:20 10° NW 00:23:26 82° NNE 00:23:52 80° ENE visible
13 Aug 10.6 02:19:07 10° WNW 02:22:01 20° W 02:22:01 20° W visible
13 Aug 9.9 21:44:53 10° WNW 21:54:10 44° N 22:03:27 11° E visible
13 Aug 9.0 23:50:24 10° NW 00:00:27 78° NNE 00:01:36 71° E visible
14 Aug 10.4 01:56:03 10° WNW 01:59:45 23° W 01:59:45 23° W visible
14 Aug 9.9 21:21:53 10° WNW 21:31:07 44° N 21:40:37 10° ENE visible
14 Aug 9.1 23:27:27 10° NW 23:37:28 75° NNE 23:39:24 61° E visible
15 Aug 10.3 01:32:59 10° WNW 01:37:33 27° W 01:37:33 27° W visible
15 Aug 10.0 20:58:53 10° WNW 21:08:03 43° N 21:17:31 10° ENE visible
15 Aug 9.1 23:04:31 10° NW 23:14:28 72° NNE 23:17:15 52° E visible
16 Aug 10.1 01:09:58 10° WNW 01:15:25 32° W 01:15:25 32° W visible
16 Aug 10.0 20:35:53 10° WNW 20:45:00 43° N 20:54:24 10° ENE visible
16 Aug 9.2 22:41:34 10° NW 22:51:29 69° NNE 22:55:10 44° E visible
17 Aug 9.9 00:46:57 10° WNW 00:53:19 38° W 00:53:19 38° W visible
17 Aug 9.2 22:18:38 10° NW 22:28:29 66° NNE 22:33:07 36° E visible
18 Aug 9.7 00:23:56 10° WNW 00:31:18 44° WSW 00:31:18 44° WSW visible
18 Aug 9.3 21:55:42 10° NW 22:05:29 64° NNE 22:11:07 30° E visible
19 Aug 9.5 00:00:57 10° WNW 00:09:18 50° WSW 00:09:18 50° WSW visible
19 Aug 9.4 21:32:45 10° NW 21:42:28 61° NNE 21:49:11 24° E visible
